Wind_Speed
12 12 11 10 11 12 11 8 7 5 5 5 4 4 5 8 11 11 11 12 13 14 16 16 19 25 27 28 30 31 33 33 33 34 35 36 37 36 37 37 38 38 39
8 8 11 12 11 10 10 10 11 10 9 10 11 11 11 13 14 12 12 11 12 15 16 19 24 27 28 30 28 29 32 33 33 33 36 36 36 37 39 40 41 40 39
6 3 4 6 11 13 13 11 11 12 13 15 19 18 16 16 12 11 12 15 15 16 19 21 24 28 30 31 34 37 33 35 34 34 36 37 38 39 42 43 45 45 43
15 16 11 10 7 5 13 14 15 15 16 18 20 19 21 17 14 13 14 15 18 20 22 25 30 35 35 36 36 41 38 38 37 38 38 38 40 41 44 44 44 43 42
21 21 16 12 11 10 12 14 15 18 19 22 21 20 17 19 19 18 18 21 24 27 30 33 37 40 40 41 38 42 42 37 39 41 42 41 41 42 43 44 42 42 39
25 25 20 19 17 19 18 19 20 20 20 24 22 18 16 19 23 21 23 27 31 34 37 41 43 44 47 43 47 48 40 39 42 42 43 43 42 41 41 42 41 40 37
27 31 23 22 19 21 21 20 22 24 24 25 21 26 23 21 25 28 30 33 36 38 42 44 46 49 46 50 48 52 46 41 41 41 42 41 40 39 38 38 39 39 36
25 24 24 22 20 19 20 20 23 21 25 24 24 28 30 26 28 31 35 39 41 43 44 46 50 48 51 55 47 46 46 44 42 41 38 37 36 36 36 35 35 36 35
21 19 17 23 21 19 20 19 22 24 24 24 27 27 30 29 31 34 37 41 44 46 49 52 58 54 51 54 57 47 44 40 40 39 35 34 34 34 33 33 32 32 37
18 18 14 13 14 17 19 19 20 21 24 26 26 25 28 29 31 35 38 39 46 49 53 53 51 52 51 55 53 48 40 40 38 33 35 33 32 32 30 29 32 34 37
14 14 13 7 5 7 7 10 14 17 20 22 22 21 19 22 26 31 33 38 42 46 47 48 52 52 53 54 51 42 38 37 39 35 31 31 31 30 31 32 35 36 37
12 12 11 10 11 14 16 18 19 21 21 21 23 24 27 27 30 34 34 35 37 41 45 48 50 53 54 46 40 38 38 33 28 30 29 29 30 32 32 34 36 36 38
8 9 12 14 16 19 21 23 24 25 26 27 28 28 30 32 35 35 35 39 41 43 46 47 51 56 48 40 37 31 26 27 29 33 32 31 32 34 35 34 35 37 38
11 13 15 18 22 25 28 32 32 33 32 32 34 33 37 36 33 35 38 40 42 45 48 51 54 46 37 37 28 24 27 28 31 32 33 32 33 36 36 34 36 37 38
14 15 17 20 21 26 28 32 34 34 34 34 35 32 34 34 35 37 40 42 46 49 51 54 49 34 37 30 25 26 30 32 32 32 33 32 35 39 36 35 36 38 36
18 17 17 19 21 23 24 23 24 31 34 31 29 30 32 34 35 37 42 48 51 54 53 52 33 37 34 24 26 29 34 35 32 33 33 33 34 37 34 34 36 34 33
18 17 17 20 23 23 24 25 25 22 23 25 27 29 32 33 34 41 46 50 54 55 50 34 40 44 24 23 28 33 34 33 32 33 33 33 36 33 32 34 32 30 33
15 17 19 22 23 25 26 25 23 21 21 24 29 31 34 38 44 48 50 52 60 48 48 41 45 28 22 27 32 32 31 31 32 32 32 33 33 31 32 31 28 28 30
18 19 21 23 25 24 23 24 25 26 27 28 31 34 37 41 48 57 54 53 48 48 42 43 28 24 26 30 31 31 30 30 30 31 31 33 31 29 31 29 26 27 27
17 18 19 21 23 24 26 27 27 28 28 29 32 36 43 53 41 46 54 46 43 42 43 31 26 28 29 30 30 29 29 30 30 30 31 31 29 30 30 28 25 26 25
20 21 23 25 28 29 29 28 26 25 25 27 32 38 42 41 44 47 39 40 40 43 30 28 28 30 31 30 30 30 31 30 31 30 30 29 29 29 29 27 25 25 23
23 24 25 27 30 31 29 28 27 26 27 27 30 30 34 38 37 43 43 42 37 32 30 32 33 33 33 32 31 30 31 32 32 29 30 30 29 29 28 27 24 24 23
24 26 28 31 30 29 29 30 28 28 28 30 32 31 33 36 37 35 35 36 36 35 36 37 37 37 35 34 32 31 31 32 33 31 31 31 31 29 27 27 24 24 23
26 28 31 29 28 29 29 26 27 27 28 30 28 28 29 32 34 37 39 40 38 39 40 40 40 38 37 36 34 35 35 34 33 32 32 33 33 30 26 27 26 24 24
29 32 30 29 28 26 23 22 22 22 23 26 28 30 32 34 36 38 39 39 40 41 42 42 41 41 40 37 36 37 37 37 35 35 34 35 34 31 27 27 27 25 25
33 30 29 26 23 21 21 21 22 23 24 26 29 31 33 34 36 37 39 38 40 41 43 44 46 45 43 42 41 39 39 39 37 38 38 37 35 33 29 27 27 27 24
Wind_Direction
147 153 159 169 169 176 185 194 203 208 225 249 263 260 274 268 281 295 296 303 302 290 290 285 291 307 312 307 306 301 300 303 300 297 296 294 294 294 294 294 295 296 294
151 176 187 199 198 204 212 217 231 242 254 260 259 252 256 262 276 287 292 291 289 284 294 293 292 302 309 316 309 310 304 300 298 297 296 296 295 294 293 292 293 294 291
260 246 217 235 229 232 235 239 254 262 257 264 264 264 258 264 278 279 281 275 288 287 288 295 298 302 309 312 317 318 310 303 301 301 299 297 296 295 294 295 295 297 298
251 242 237 254 297 279 236 244 260 266 274 276 272 273 271 267 262 264 265 268 273 279 285 290 294 297 297 299 305 308 311 305 304 300 295 292 292 293 296 298 299 300 300
261 261 255 279 266 258 258 264 278 284 281 278 277 280 267 256 252 257 262 270 277 281 285 288 292 293 297 299 306 315 306 301 298 298 295 295 296 297 296 296 297 298 301
255 261 261 256 251 254 262 272 278 278 282 284 277 285 264 256 255 261 267 272 278 281 285 286 288 292 296 304 308 314 306 298 299 297 296 297 296 296 296 295 297 299 302
249 253 256 257 259 262 271 277 276 276 287 280 282 274 274 263 266 264 267 271 277 281 286 287 286 288 300 305 309 312 302 299 300 299 299 298 297 297 296 298 302 304 306
247 248 257 254 260 264 270 281 277 269 280 283 285 273 274 273 276 276 278 280 281 280 282 282 284 294 303 307 303 304 298 303 302 301 299 298 297 300 303 305 305 302 301
250 256 257 254 259 258 279 275 264 277 275 279 281 280 274 279 285 286 287 283 284 286 287 291 295 303 303 310 308 299 306 308 304 301 299 302 305 304 304 304 305 303 305
257 255 272 252 259 275 279 285 278 284 285 285 283 280 284 293 292 295 294 294 296 295 295 297 303 304 306 308 304 306 311 304 299 299 306 304 307 309 307 307 308 306 302
262 259 256 252 291 291 305 311 302 298 290 287 288 293 299 299 298 294 296 294 295 293 297 299 302 305 304 301 305 314 306 296 295 302 303 310 311 309 308 310 311 308 306
248 241 251 262 281 294 302 303 301 298 296 289 287 284 290 295 299 294 289 300 298 298 298 300 304 303 299 300 314 309 301 302 308 311 313 316 318 315 310 305 306 307 306
221 242 248 256 270 280 285 288 289 286 282 284 283 284 291 296 301 297 298 295 296 298 301 307 304 306 301 312 311 302 303 307 313 318 322 325 323 319 313 308 309 308 306
243 248 255 262 267 271 275 276 277 277 278 279 282 289 296 297 297 293 294 295 299 299 302 300 302 297 311 314 303 302 303 312 318 318 317 315 312 321 315 309 309 308 309
252 246 248 257 266 268 277 278 280 282 281 287 290 293 294 291 292 292 293 292 291 292 297 301 297 307 313 303 303 306 308 317 315 313 311 313 299 311 311 309 311 309 309
255 261 262 264 263 269 278 286 280 277 278 285 287 285 283 287 290 292 287 286 289 286 288 294 295 314 306 301 303 303 307 307 310 310 307 310 306 307 308 310 309 309 311
262 266 269 275 280 284 287 290 290 283 274 279 283 286 293 291 291 286 289 289 285 284 284 284 305 308 298 295 293 298 301 304 306 305 305 305 306 306 309 310 310 311 312
261 276 280 283 284 285 285 285 286 287 287 287 287 291 290 287 290 293 289 293 281 284 281 299 304 300 295 289 297 297 298 301 305 306 305 306 306 307 310 310 310 311 311
286 289 288 288 290 292 292 293 291 291 290 290 290 293 295 288 284 266 265 281 283 283 295 302 293 290 285 296 295 296 300 303 302 302 306 305 306 305 310 310 309 310 310
292 291 289 287 288 293 295 294 290 285 282 285 289 290 287 283 297 288 291 287 289 296 299 293 284 288 298 297 296 297 298 299 299 301 303 307 305 306 310 308 305 308 308
294 291 291 293 297 301 301 297 293 286 280 280 284 290 296 291 291 288 291 296 295 299 291 289 294 298 299 299 297 295 296 296 295 297 301 303 300 303 307 305 302 305 307
295 296 296 298 300 301 299 298 296 294 294 289 289 293 293 285 290 293 295 294 296 294 291 294 296 297 298 297 295 293 293 293 294 296 297 298 296 299 302 302 298 302 303
297 297 298 301 299 298 300 302 301 297 294 294 295 293 288 287 289 292 295 296 297 295 295 295 295 296 296 296 295 292 291 291 293 294 292 292 293 292 295 298 295 295 298
293 295 300 298 296 297 296 293 295 296 293 292 293 293 293 294 295 296 296 296 296 294 294 293 293 293 295 295 294 292 292 291 291 292 288 287 288 289 286 293 293 288 292
292 297 295 293 293 294 295 295 294 294 295 294 295 296 298 297 297 297 297 296 296 295 295 295 293 294 296 294 290 291 289 289 292 289 286 282 285 286 280 284 288 284 285
292 292 292 292 293 297 299 298 297 296 297 298 300 299 298 298 298 298 297 297 298 297 296 296 295 294 293 291 289 287 286 286 288 287 288 285 282 279 277 275 281 280 279
Height
3138 3139 3140 3142 3144 3146 3148 3149 3150 3152 3153 3154 3155 3157 3158 3158 3158 3158 3158 3157 3157 3157 3155 3154 3153 3151 3149 3146 3143 3141 3137 3133 3130 3127 3122 3118 3114 3111 3108 3104 3100 3096 3093
3137 3139 3140 3142 3143 3145 3145 3147 3149 3150 3151 3152 3153 3154 3154 3155 3155 3156 3156 3155 3154 3153 3152 3151 3149 3147 3146 3143 3139 3136 3132 3128 3124 3120 3116 3112 3110 3105 3100 3095 3091 3087 3082
3135 3138 3140 3140 3141 3141 3143 3145 3146 3148 3149 3149 3150 3151 3152 3153 3153 3154 3153 3152 3150 3149 3148 3146 3144 3142 3140 3136 3132 3129 3124 3119 3116 3112 3109 3103 3098 3095 3091 3087 3082 3078 3073
3133 3136 3138 3139 3140 3140 3142 3143 3145 3145 3145 3146 3146 3147 3148 3149 3150 3150 3150 3149 3147 3145 3143 3140 3138 3135 3131 3127 3124 3119 3115 3111 3107 3103 3099 3095 3090 3084 3079 3076 3070 3066 3062
3129 3131 3133 3136 3137 3138 3138 3140 3140 3140 3141 3142 3143 3143 3143 3145 3146 3146 3145 3143 3141 3139 3137 3133 3130 3125 3121 3118 3115 3111 3106 3103 3099 3095 3090 3085 3080 3075 3070 3064 3060 3056 3052
3125 3127 3130 3131 3133 3134 3135 3136 3136 3138 3138 3139 3138 3138 3139 3139 3140 3140 3138 3137 3135 3132 3129 3125 3120 3117 3113 3111 3106 3102 3098 3094 3090 3085 3081 3076 3071 3066 3060 3055 3050 3046 3043
3121 3122 3125 3126 3129 3130 3131 3131 3132 3132 3133 3133 3133 3133 3133 3133 3135 3134 3132 3129 3127 3124 3120 3116 3112 3108 3106 3103 3098 3093 3088 3084 3080 3077 3072 3067 3061 3056 3050 3046 3042 3038 3035
3117 3119 3120 3123 3125 3127 3129 3129 3129 3128 3128 3128 3127 3127 3127 3126 3126 3125 3123 3121 3118 3114 3110 3106 3102 3100 3098 3094 3087 3083 3078 3074 3071 3067 3063 3058 3052 3048 3044 3039 3034 3030 3026
3113 3115 3117 3118 3121 3123 3123 3125 3126 3126 3125 3123 3123 3121 3121 3120 3119 3118 3115 3112 3109 3106 3103 3100 3096 3094 3088 3084 3079 3073 3069 3066 3062 3058 3054 3050 3046 3041 3036 3031 3028 3023 3017
3109 3111 3113 3115 3117 3118 3119 3119 3120 3120 3119 3117 3117 3117 3116 3114 3112 3111 3109 3106 3103 3100 3096 3092 3089 3085 3081 3077 3072 3066 3063 3059 3054 3050 3046 3041 3037 3033 3029 3024 3020 3017 3011
3106 3108 3109 3110 3111 3113 3113 3114 3114 3113 3113 3112 3112 3110 3109 3109 3107 3105 3103 3100 3098 3094 3091 3086 3082 3078 3073 3069 3064 3060 3055 3050 3046 3043 3038 3034 3030 3026 3021 3017 3013 3009 3004
3105 3106 3106 3106 3107 3109 3110 3110 3109 3108 3108 3106 3105 3105 3104 3103 3100 3099 3097 3095 3092 3088 3084 3079 3074 3070 3065 3060 3056 3051 3046 3042 3039 3036 3031 3027 3022 3018 3014 3010 3006 3002 2996
3103 3104 3105 3106 3106 3107 3106 3106 3105 3104 3102 3101 3101 3100 3098 3096 3094 3092 3090 3087 3083 3080 3075 3071 3066 3061 3056 3052 3048 3043 3039 3035 3030 3027 3024 3019 3016 3012 3008 3004 2999 2994 2988
3100 3101 3102 3103 3103 3102 3101 3100 3100 3098 3096 3096 3094 3093 3091 3089 3087 3085 3082 3079 3074 3071 3066 3061 3056 3051 3047 3043 3040 3037 3034 3029 3024 3019 3017 3014 3010 3006 3002 2997 2993 2987 2981
3096 3096 3097 3097 3097 3096 3094 3094 3091 3089 3088 3087 3086 3085 3083 3082 3079 3077 3073 3068 3064 3059 3054 3049 3046 3042 3039 3036 3033 3029 3026 3022 3017 3013 3010 3007 3004 3000 2995 2991 2985 2979 2974
3091 3091 3092 3092 3091 3090 3088 3086 3084 3083 3081 3080 3079 3077 3076 3073 3070 3066 3063 3058 3053 3047 3042 3039 3039 3037 3032 3029 3026 3022 3018 3015 3011 3007 3003 3000 2996 2992 2988 2983 2978 2973 2967
3088 3089 3088 3087 3086 3084 3081 3078 3075 3074 3073 3072 3071 3070 3067 3064 3059 3056 3051 3046 3041 3036 3034 3034 3033 3029 3025 3023 3019 3015 3011 3007 3004 3000 2996 2992 2989 2985 2980 2976 2971 2966 2960
3083 3083 3082 3080 3077 3075 3073 3071 3069 3067 3065 3064 3062 3060 3058 3054 3050 3045 3041 3036 3030 3030 3029 3030 3025 3021 3019 3016 3012 3008 3004 3000 2996 2993 2989 2985 2981 2977 2973 2969 2964 2960 2955
3078 3076 3074 3071 3069 3068 3066 3064 3062 3060 3058 3056 3054 3052 3049 3045 3041 3032 3025 3028 3029 3025 3026 3021 3017 3014 3012 3007 3003 3000 2996 2993 2990 2986 2982 2978 2974 2971 2967 2962 2958 2955 2950
3071 3069 3067 3065 3063 3062 3060 3057 3054 3052 3050 3048 3047 3044 3040 3035 3033 3029 3027 3026 3024 3021 3017 3012 3009 3007 3004 2999 2996 2992 2989 2986 2983 2979 2975 2971 2967 2964 2960 2956 2953 2950 2946
3065 3064 3062 3060 3057 3055 3053 3050 3047 3044 3043 3041 3039 3036 3032 3031 3028 3024 3022 3019 3015 3011 3008 3005 3002 2999 2995 2991 2988 2984 2981 2978 2975 2972 2968 2964 2961 2957 2953 2950 2947 2944 2941
3060 3059 3057 3054 3051 3048 3045 3042 3039 3037 3034 3033 3031 3030 3028 3024 3020 3017 3013 3010 3006 3002 3000 2996 2994 2990 2987 2983 2979 2976 2972 2969 2966 2963 2960 2956 2954 2950 2947 2944 2941 2938 2936
3054 3052 3049 3046 3043 3039 3036 3033 3030 3029 3027 3025 3024 3021 3019 3015 3012 3008 3004 3001 2998 2994 2991 2988 2985 2982 2978 2974 2970 2966 2963 2960 2956 2954 2951 2948 2946 2943 2940 2937 2935 2932 2930
3048 3045 3042 3038 3035 3032 3029 3027 3025 3022 3020 3018 3015 3013 3010 3007 3004 3000 2997 2993 2990 2986 2982 2979 2975 2972 2968 2964 2960 2956 2953 2950 2947 2944 2941 2939 2937 2936 2933 2930 2928 2926 2924
3041 3038 3035 3032 3029 3026 3024 3022 3019 3017 3015 3012 3009 3006 3004 3001 2998 2994 2990 2986 2982 2977 2973 2969 2964 2960 2958 2955 2950 2946 2943 2939 2936 2933 2931 2929 2928 2926 2925 2923 2921 2919 2917
3033 3030 3027 3024 3022 3020 3018 3016 3014 3012 3009 3007 3003 3000 2997 2993 2989 2984 2981 2978 2973 2968 2963 2958 2952 2950 2946 2943 2939 2935 2932 2929 2926 2921 2920 2919 2918 2917 2916 2915 2913 2912 2911